| time (UTC) | temp C | wind direction | speed KPH | gust KPH | rain 1hr cm | rain 24hr cm | rain mn cm | humidity % | barometer mb |
| 20260504214944 | 21 | 176 | 1.6 | 17.7 | 0.00 | 0.00 | 0.00 | 52 | 1037.0 |
| 20260504214443 | 21 | 184 | 1.6 | 17.7 | 0.00 | 0.00 | 0.00 | 52 | 1037.1 |
| 20260504213427 | 21 | 160 | 1.6 | 17.7 | 0.00 | 0.00 | 0.00 | 53 | 1037.0 |
| 20260504212927 | 21 | 149 | 3.2 | 17.7 | 0.00 | 0.00 | 0.00 | 53 | 1037.1 |
| 20260504212426 | 22 | 183 | 1.6 | 17.7 | 0.00 | 0.00 | 0.00 | 53 | 1036.9 |
| 20260504211926 | 22 | 191 | 1.6 | 17.7 | 0.00 | 0.00 | 0.00 | 52 | 1037.0 |
| 20260504211426 | 23 | 170 | 1.6 | 17.7 | 0.00 | 0.00 | 0.00 | 50 | 1037.3 |
| 20260504210926 | 22 | 11 | 0.0 | 17.7 | 0.00 | 0.00 | 0.00 | 52 | 1036.7 |
| 20260504210426 | 23 | 181 | 1.6 | 17.7 | 0.00 | 0.00 | 0.00 | 51 | 1037.0 |
| 20260504205925 | 23 | 160 | 1.6 | 17.7 | 0.00 | 0.00 | 0.00 | 48 | 1036.8 |
| 20260504205425 | 23 | 165 | 1.6 | 17.7 | 0.00 | 0.00 | 0.00 | 48 | 1037.0 |
| 20260504204925 | 23 | 146 | 0.0 | 17.7 | 0.00 | 0.00 | 0.00 | 52 | 1037.0 |
| 20260504204424 | 23 | 185 | 0.0 | 17.7 | 0.00 | 0.00 | 0.00 | 50 | 1037.2 |
| 20260504203923 | 23 | 177 | 0.0 | 17.7 | 0.00 | 0.00 | 0.00 | 49 | 1037.0 |
| 20260504203423 | 23 | 4 | 0.0 | 17.7 | 0.00 | 0.00 | 0.00 | 48 | 1037.1 |
| 20260504202923 | 23 | 201 | 1.6 | 17.7 | 0.00 | 0.00 | 0.00 | 48 | 1036.9 |
| 20260504202422 | 23 | 203 | 0.0 | 17.7 | 0.00 | 0.00 | 0.00 | 49 | 1037.2 |
| 20260504201921 | 22 | 160 | 1.6 | 17.7 | 0.00 | 0.00 | 0.00 | 50 | 1037.1 |
| 20260504201420 | 22 | 142 | 1.6 | 17.7 | 0.00 | 0.00 | 0.00 | 50 | 1037.1 |
| 20260504200919 | 22 | 289 | 0.0 | 17.7 | 0.00 | 0.00 | 0.00 | 51 | 1037.3 |
| 20260504195904 | 23 | 234 | 1.6 | 17.7 | 0.00 | 0.00 | 0.00 | 49 | 1037.1 |
| 20260504195404 | 23 | 217 | 0.0 | 17.7 | 0.00 | 0.00 | 0.00 | 50 | 1037.5 |
| 20260504194904 | 23 | 217 | 0.0 | 17.7 | 0.00 | 0.00 | 0.00 | 50 | 1037.5 |
| 20260504194404 | 23 | 223 | 0.0 | 17.7 | 0.00 | 0.00 | 0.00 | 49 | 1037.2 |
| 20260504193903 | 23 | 206 | 0.0 | 17.7 | 0.00 | 0.00 | 0.00 | 51 | 1036.8 |
| 20260504193403 | 23 | 173 | 0.0 | 17.7 | 0.00 | 0.00 | 0.00 | 55 | 1037.1 |
| 20260504192348 | 22 | 92 | 0.0 | 17.7 | 0.00 | 0.00 | 0.00 | 55 | 1037.0 |
| 20260504191848 | 21 | 85 | 0.0 | 17.7 | 0.00 | 0.00 | 0.00 | 57 | 1036.8 |
| 20260504191347 | 21 | 84 | 0.0 | 17.7 | 0.00 | 0.00 | 0.00 | 55 | 1037.0 |
| 20260504190846 | 21 | 80 | 0.0 | 17.7 | 0.00 | 0.00 | 0.00 | 59 | 1037.0 |
| 20260504190346 | 21 | 80 | 0.0 | 17.7 | 0.00 | 0.00 | 0.00 | 58 | 1037.3 |
| 20260504185331 | 20 | 171 | 0.0 | 17.7 | 0.00 | 0.00 | 0.00 | 59 | 1036.8 |
| 20260504184830 | 20 | 174 | 0.0 | 17.7 | 0.00 | 0.00 | 0.00 | 59 | 1037.2 |
| 20260504184330 | 20 | 187 | 0.0 | 17.7 | 0.00 | 0.00 | 0.00 | 58 | 1037.1 |
| 20260504183830 | 20 | 192 | 0.0 | 17.7 | 0.00 | 0.00 | 0.00 | 60 | 1037.5 |
| 20260504183329 | 20 | 192 | 0.0 | 17.7 | 0.00 | 0.00 | 0.00 | 59 | 1037.1 |
| 20260504181757 | 20 | 192 | 0.0 | 17.7 | 0.00 | 0.00 | 0.00 | 60 | 1037.0 |
| 20260504181256 | 21 | 192 | 0.0 | 17.7 | 0.00 | 0.00 | 0.00 | 60 | 1037.0 |
| 20260504180755 | 21 | 192 | 0.0 | 17.7 | 0.00 | 0.00 | 0.00 | 59 | 1037.2 |
| 20260504180254 | 21 | 192 | 0.0 | 17.7 | 0.00 | 0.00 | 0.00 | 59 | 1037.2 |
| 20260504175753 | 21 | 192 | 0.0 | 17.7 | 0.00 | 0.00 | 0.00 | 58 | 1037.2 |
| 20260504175252 | 21 | 192 | 0.0 | 17.7 | 0.00 | 0.00 | 0.00 | 56 | 1037.4 |
| 20260504174751 | 21 | 192 | 0.0 | 17.7 | 0.00 | 0.00 | 0.00 | 57 | 1037.4 |
| 20260504173218 | 22 | 192 | 0.0 | 17.7 | 0.00 | 0.00 | 0.00 | 55 | 1037.1 |
| 20260504172717 | 22 | 192 | 0.0 | 17.7 | 0.00 | 0.00 | 0.00 | 56 | 1037.2 |
| 20260504172216 | 22 | 192 | 0.0 | 17.7 | 0.00 | 0.00 | 0.00 | 57 | 1037.2 |
| 20260504171159 | 22 | 192 | 0.0 | 17.7 | 0.00 | 0.00 | 0.00 | 57 | 1037.1 |
| 20260504170658 | 22 | 192 | 0.0 | 17.7 | 0.00 | 0.00 | 0.00 | 57 | 1037.2 |
| 20260504170158 | 22 | 192 | 0.0 | 17.7 | 0.00 | 0.00 | 0.00 | 57 | 1037.0 |
| 20260504160135 | 20 | 191 | 0.0 | 17.7 | 0.00 | 0.00 | 0.00 | 61 | 1037.0 |
| 20260504150557 | 16 | 191 | 0.0 | 17.7 | 0.00 | 0.00 | 0.00 | 73 | 1036.7 |
| 20260504140955 | 13 | 268 | 0.0 | 17.7 | 0.00 | 0.00 | 0.00 | 80 | 1036.2 |
| 20260504140454 | 13 | 268 | 0.0 | 17.7 | 0.00 | 0.00 | 0.00 | 81 | 1036.2 |
| 20260504130432 | 13 | 268 | 0.0 | 17.7 | 0.00 | 0.00 | 0.00 | 77 | 1035.9 |
| 20260504110303 | 13 | 237 | 0.0 | 17.7 | 0.00 | 0.00 | 0.00 | 69 | 1035.7 |
| 20260504100225 | 15 | 237 | 0.0 | 17.7 | 0.00 | 0.00 | 0.00 | 65 | 1035.6 |
| 20260504081645 | 17 | 237 | 0.0 | 17.7 | 0.00 | 0.00 | 0.00 | 58 | 1035.7 |
| 20260504081145 | 17 | 237 | 0.0 | 17.7 | 0.00 | 0.00 | 0.00 | 57 | 1035.5 |
| 20260504080645 | 17 | 237 | 0.0 | 17.7 | 0.00 | 0.00 | 0.00 | 57 | 1035.9 |
| 20260504080145 | 17 | 243 | 0.0 | 17.7 | 0.00 | 0.00 | 0.00 | 57 | 1035.8 |
| 20260504070129 | 17 | 257 | 0.0 | 17.7 | 0.00 | 0.00 | 0.00 | 55 | 1035.7 |
| 20260504050534 | 17 | 257 | 0.0 | 17.7 | 0.00 | 0.00 | 0.00 | 55 | 1035.8 |
| 20260504045533 | 17 | 257 | 0.0 | 17.7 | 0.00 | 0.00 | 0.00 | 55 | 1036.1 |
| 20260504045033 | 17 | 257 | 0.0 | 17.7 | 0.00 | 0.00 | 0.00 | 55 | 1036.1 |
| 20260504044532 | 18 | 257 | 0.0 | 17.7 | 0.00 | 0.00 | 0.00 | 55 | 1036.1 |
| 20260504044031 | 18 | 257 | 0.0 | 17.7 | 0.00 | 0.00 | 0.00 | 55 | 1036.1 |
| 20260504043531 | 18 | 257 | 0.0 | 17.7 | 0.00 | 0.00 | 0.00 | 55 | 1036.2 |
| 20260504042515 | 18 | 257 | 0.0 | 17.7 | 0.00 | 0.00 | 0.00 | 55 | 1036.0 |
| 20260504042014 | 18 | 257 | 0.0 | 17.7 | 0.00 | 0.00 | 0.00 | 54 | 1035.7 |
| 20260504041514 | 18 | 257 | 0.0 | 17.7 | 0.00 | 0.00 | 0.00 | 54 | 1035.9 |
| 20260504040457 | 18 | 257 | 0.0 | 17.7 | 0.00 | 0.00 | 0.00 | 51 | 1036.1 |
| 20260504035957 | 18 | 257 | 0.0 | 17.7 | 0.00 | 0.00 | 0.00 | 51 | 1036.0 |
| 20260504035456 | 18 | 257 | 0.0 | 17.7 | 0.00 | 0.00 | 0.00 | 51 | 1035.6 |
| 20260504034955 | 18 | 257 | 0.0 | 17.7 | 0.00 | 0.00 | 0.00 | 51 | 1036.0 |
| 20260504034455 | 18 | 257 | 0.0 | 17.7 | 0.00 | 0.00 | 0.00 | 52 | 1035.9 |
| 20260504033954 | 19 | 257 | 0.0 | 17.7 | 0.00 | 0.00 | 0.00 | 50 | 1035.8 |
| 20260504032423 | 19 | 257 | 0.0 | 17.7 | 0.00 | 0.00 | 0.00 | 49 | 1036.1 |
| 20260504031923 | 20 | 257 | 0.0 | 17.7 | 0.00 | 0.00 | 0.00 | 48 | 1035.8 |
| 20260504031423 | 20 | 257 | 0.0 | 17.7 | 0.00 | 0.00 | 0.00 | 48 | 1036.0 |
| 20260504030923 | 20 | 257 | 0.0 | 17.7 | 0.00 | 0.00 | 0.00 | 48 | 1036.1 |
| 20260504030422 | 20 | 257 | 0.0 | 17.7 | 0.00 | 0.00 | 0.00 | 48 | 1036.0 |
| 20260504025922 | 20 | 257 | 0.0 | 17.7 | 0.00 | 0.00 | 0.00 | 49 | 1035.9 |
| 20260504025421 | 20 | 257 | 0.0 | 17.7 | 0.00 | 0.00 | 0.00 | 48 | 1036.0 |
| 20260504024921 | 20 | 257 | 0.0 | 17.7 | 0.00 | 0.00 | 0.00 | 49 | 1036.0 |
| 20260504024420 | 20 | 257 | 0.0 | 17.7 | 0.00 | 0.00 | 0.00 | 50 | 1035.7 |
| 20260504023919 | 20 | 257 | 0.0 | 17.7 | 0.00 | 0.00 | 0.00 | 50 | 1035.9 |
| 20260504023418 | 20 | 257 | 0.0 | 17.7 | 0.00 | 0.00 | 0.00 | 48 | 1035.9 |
| 20260504022918 | 21 | 257 | 0.0 | 17.7 | 0.00 | 0.00 | 0.00 | 49 | 1035.9 |
| 20260504022417 | 21 | 257 | 0.0 | 17.7 | 0.00 | 0.00 | 0.00 | 51 | 1036.1 |
| 20260504021917 | 21 | 257 | 0.0 | 17.7 | 0.00 | 0.00 | 0.00 | 50 | 1036.1 |
| 20260504021416 | 21 | 257 | 0.0 | 17.7 | 0.00 | 0.00 | 0.00 | 50 | 1036.3 |
| 20260504020916 | 21 | 257 | 0.0 | 17.7 | 0.00 | 0.00 | 0.00 | 49 | 1036.6 |
| 20260504020415 | 21 | 257 | 0.0 | 17.7 | 0.00 | 0.00 | 0.00 | 48 | 1036.2 |
| 20260504015915 | 21 | 177 | 0.0 | 17.7 | 0.00 | 0.00 | 0.00 | 46 | 1036.2 |
| 20260504014859 | 21 | 177 | 0.0 | 17.7 | 0.00 | 0.00 | 0.00 | 47 | 1036.2 |
| 20260504014359 | 21 | 177 | 0.0 | 17.7 | 0.00 | 0.00 | 0.00 | 47 | 1036.5 |
| 20260504013859 | 21 | 177 | 0.0 | 17.7 | 0.00 | 0.00 | 0.00 | 45 | 1036.5 |
| 20260504013359 | 21 | 177 | 0.0 | 17.7 | 0.00 | 0.00 | 0.00 | 48 | 1036.5 |
| 20260504012859 | 21 | 166 | 0.0 | 17.7 | 0.00 | 0.00 | 0.00 | 47 | 1036.7 |
| 20260504012358 | 21 | 166 | 0.0 | 17.7 | 0.00 | 0.00 | 0.00 | 50 | 1036.7 |
| 20260504011858 | 21 | 166 | 0.0 | 17.7 | 0.00 | 0.00 | 0.00 | 48 | 1036.5 |
| 20260504010843 | 21 | 166 | 0.0 | 17.7 | 0.00 | 0.00 | 0.00 | 46 | 1036.7 |
| 20260504010342 | 21 | 166 | 0.0 | 17.7 | 0.00 | 0.00 | 0.00 | 46 | 1036.5 |
| 20260504005326 | 21 | 166 | 0.0 | 17.7 | 0.00 | 0.00 | 0.00 | 49 | 1036.7 |
| 20260504004310 | 21 | 166 | 0.0 | 17.7 | 0.00 | 0.00 | 0.00 | 50 | 1036.7 |
| 20260504003810 | 21 | 166 | 0.0 | 17.7 | 0.00 | 0.00 | 0.00 | 49 | 1036.8 |
| 20260504002755 | 21 | 166 | 0.0 | 17.7 | 0.00 | 0.00 | 0.00 | 47 | 1036.8 |
| 20260504002254 | 21 | 166 | 0.0 | 17.7 | 0.00 | 0.00 | 0.00 | 46 | 1037.1 |
| 20260504001238 | 21 | 166 | 0.0 | 17.7 | 0.00 | 0.00 | 0.00 | 48 | 1037.0 |
| 20260504000738 | 21 | 166 | 0.0 | 17.7 | 0.00 | 0.00 | 0.00 | 51 | 1037.3 |
| 20260504000241 | 21 | 166 | 0.0 | 17.7 | 0.00 | 0.00 | 0.00 | 49 | 1037.6 |
| 20260503235738 | 21 | 166 | 0.0 | 17.7 | 0.00 | 0.00 | 0.00 | 52 | 1037.2 |
| 20260503235237 | 21 | 166 | 0.0 | 17.7 | 0.00 | 0.00 | 0.00 | 52 | 1037.6 |
| 20260503234737 | 21 | 166 | 0.0 | 17.7 | 0.00 | 0.00 | 0.00 | 52 | 1037.4 |
| 20260503234237 | 21 | 166 | 0.0 | 17.7 | 0.00 | 0.00 | 0.00 | 51 | 1037.6 |
| 20260503233222 | 22 | 163 | 0.0 | 17.7 | 0.00 | 0.00 | 0.00 | 50 | 1037.7 |
| 20260503232722 | 22 | 163 | 0.0 | 17.7 | 0.00 | 0.00 | 0.00 | 49 | 1037.4 |
| 20260503232222 | 22 | 162 | 0.0 | 17.7 | 0.00 | 0.00 | 0.00 | 48 | 1037.8 |
| 20260503231722 | 22 | 189 | 0.0 | 17.7 | 0.00 | 0.00 | 0.00 | 48 | 1037.6 |
| 20260503231223 | 23 | 197 | 0.0 | 17.7 | 0.00 | 0.00 | 0.00 | 47 | 1038.1 |
| 20260503230722 | 23 | 172 | 0.0 | 17.7 | 0.00 | 0.00 | 0.00 | 46 | 1037.8 |
| 20260503230221 | 23 | 175 | 0.0 | 17.7 | 0.00 | 0.00 | 0.00 | 45 | 1037.8 |
| 20260503225720 | 23 | 174 | 0.0 | 17.7 | 0.00 | 0.00 | 0.00 | 46 | 1037.7 |
| 20260503225220 | 23 | 191 | 0.0 | 17.7 | 0.00 | 0.00 | 0.00 | 45 | 1038.2 |
| 20260503224720 | 23 | 161 | 1.6 | 17.7 | 0.00 | 0.00 | 0.00 | 41 | 1037.8 |
| 20260503224220 | 23 | 149 | 0.0 | 17.7 | 0.00 | 0.00 | 0.00 | 44 | 1038.4 |
| 20260503223720 | 24 | 157 | 0.0 | 17.7 | 0.00 | 0.00 | 0.00 | 44 | 1038.5 |
| 20260503223220 | 24 | 164 | 1.6 | 17.7 | 0.00 | 0.00 | 0.00 | 41 | 1038.3 |
| 20260503222720 | 25 | 160 | 0.0 | 17.7 | 0.00 | 0.00 | 0.00 | 44 | 1038.4 |
| 20260503222220 | 25 | 155 | 0.0 | 17.7 | 0.00 | 0.00 | 0.00 | 43 | 1038.4 |
| 20260503221205 | 25 | 211 | 0.0 | 17.7 | 0.00 | 0.00 | 0.00 | 44 | 1038.7 |
| 20260503220705 | 25 | 150 | 0.0 | 17.7 | 0.00 | 0.00 | 0.00 | 43 | 1038.7 |
| 20260503220205 | 25 | 157 | 0.0 | 17.7 | 0.00 | 0.00 | 0.00 | 46 | 1038.9 |
| 20260503215705 | 25 | 161 | 0.0 | 17.7 | 0.00 | 0.00 | 0.00 | 45 | 1039.0 |